Home   Weather   Cali   Past weeks

Flag for Colombia Past Weather in Cali, Colombia — Yesterday and Last 2 Weeks

Now
77 °F

Passing clouds.


Feels Like: 79 °F
Forecast: 67 / 80 °F
Wind: 3 mph from Northeast

Location: Cali / Alfonso Bonillaaragon

Current Time: Dec 10, 2016 at 9:52:24 am

Latest Report: Dec 10, 2016 at 9:00 am


Visibility: N/A

Pressure: 30.09 "Hg (26.97 "Hg at 955m altitude)

Humidity: 69%

Dew Point: 66 °F

Location of CaliLocation

Past Weather in Cali — Graph

°F

Cali Temperature Yesterday

Maximum temperature yesterday: 84 °F (at 4:00 pm)
Minimum temperature yesterday: 66 °F (at 3:00 am)
Average temperature yesterday: 74 °F

High & Low Weather Summary for the Past Weeks

 TemperatureHumidityPressure
High90 °F (Nov 30, 3:00 pm)100% (Nov 25, 8:00 pm)30.09 "Hg (Nov 25, 8:00 pm)
Low63 °F (Dec 6, 6:00 am)46% (Nov 30, 3:00 pm)29.82 "Hg (Nov 28, 3:00 pm)
Average73 °F84%29.98 "Hg
* Reported Nov 25 8:00 am — Dec 10 8:00 am, Cali, Weather by CustomWeather, © 2016

Note: Actual official high and low records may vary slightly from our data, if they occured in-between our weather recording intervals... More about our weather records

Advertising

Cali Weather History for the Previous 24 Hours

Scroll right to see more
 ConditionsComfort  
Time TempWeatherWind HumidityBarometerVisibility
8:00 am
Sat, Dec 10
75 °FScattered clouds.2 mph78%30.08 "Hg5 mi
7:00 am70 °FClear.2 mph94%30.06 "Hg6 mi
6:00 am66 °FPassing clouds.2 mph100%30.03 "HgN/A
5:00 am68 °FPartly cloudy.No wind100%30.02 "Hg6 mi
4:00 am68 °FPassing clouds.2 mph100%30.01 "HgN/A
3:00 am70 °FPassing clouds.3 mph94%30.00 "HgN/A
2:00 am68 °FPassing clouds.3 mph94%30.01 "HgN/A
1:00 am70 °FPassing clouds.3 mph88%30.03 "HgN/A
12:00 am68 °FPassing clouds.6 mph94%30.04 "HgN/A
11:00 pm
Fri, Dec 9
68 °FPassing clouds.3 mph94%30.05 "HgN/A
10:00 pm72 °FPassing clouds.10 mph83%30.04 "HgN/A
9:00 pm68 °FPassing clouds.7 mph88%30.01 "HgN/A
8:00 pm73 °FPassing clouds.6 mph74%29.99 "HgN/A
7:00 pm73 °FPassing clouds.12 mph78%29.95 "HgN/A
6:00 pm77 °FPassing clouds.12 mph69%29.92 "HgN/A
5:00 pm81 °FScattered clouds.12 mph62%29.90 "HgN/A
4:00 pm84 °FScattered showers. Scattered clouds.10 mph55%29.89 "HgN/A
3:00 pm82 °FScattered clouds.7 mph58%29.91 "HgN/A
2:00 pm82 °FPartly sunny.13 mph58%29.94 "HgN/A
1:00 pm82 °FScattered clouds.6 mph58%29.98 "HgN/A
12:00 pm79 °FScattered clouds.5 mph70%30.01 "HgN/A
11:00 am79 °FBroken clouds.5 mph70%30.05 "HgN/A
10:00 am75 °FPartly sunny.5 mph78%30.07 "Hg6 mi
9:00 am73 °FPartly sunny.No wind89%30.08 "Hg5 mi
Weather by CustomWeather, © 2016

See weather overviewHow to use our weather pages